SCP
0 0 0 0 0 0 0 0 0 0 0 0 0 0 0 0 0 0 0 0 0 0 0 0 0 0 1 1 1 1 0 0 0 0 0 0 0 0 0 0 0 0 0 0
0 0 0 0 0 0 0 0 0 0 0 0 0 0 0 0 0 0 0 0 0 0 1 1 0 0 1 1 1 1 1 0 0 0 0 0 0 0 0 0 0 0 0 0
0 0 0 0 0 0 0 0 0 0 0 0 0 0 0 0 0 0 0 0 0 0 1 1 1 0 1 1 1 1 1 1 0 0 0 0 0 0 0 0 0 0 0 0
0 0 0 0 0 0 0 0 0 0 0 0 0 0 0 0 0 0 0 0 0 1 1 1 1 1 1 1 1 1 1 1 1 0 0 0 0 0 0 0 0 0 0 0
0 0 0 0 0 0 0 0 0 0 0 0 0 0 0 0 0 0 0 0 0 1 1 1 1 1 1 1 1 1 1 1 1 1 0 0 0 0 0 0 0 0 0 0
0 0 0 0 0 0 0 0 0 0 0 0 0 0 0 0 0 0 0 0 0 1 1 1 1 1 1 1 1 1 1 1 1 1 0 0 0 0 0 0 0 0 0 0
0 0 0 0 0 0 0 0 0 0 0 0 0 0 0 0 0 0 1 1 0 0 1 1 1 1 1 1 1 1 1 1 1 1 1 0 0 0 0 0 0 0 0 0
0 0 0 0 0 0 0 0 0 0 0 0 0 0 0 0 0 0 0 0 0 0 1 1 1 1 1 1 1 1 1 1 1 1 1 1 1 0 0 0 0 0 0 0
0 0 0 0 0 0 0 0 0 0 0 0 0 0 0 0 0 0 0 0 0 0 0 1 1 1 1 1 1 1 1 1 1 1 1 1 1 0 0 0 0 0 0 0
0 0 0 0 0 0 0 0 0 0 0 0 0 0 0 0 0 0 0 0 0 0 0 1 1 1 1 1 1 1 1 2 1 1 1 1 1 1 1 1 1 1 0 0
0 0 0 0 0 0 0 0 0 0 0 0 0 0 0 0 0 0 0 0 0 0 1 1 1 1 1 1 1 1 1 2 2 1 1 1 1 1 1 1 1 1 1 1
0 0 0 0 0 0 0 0 0 0 0 0 0 0 0 0 0 0 0 0 0 0 1 1 1 1 1 1 1 1 1 1 1 1 1 1 1 1 1 1 1 1 1 1
0 0 0 0 0 0 0 0 0 0 0 0 0 0 0 0 0 1 1 1 1 1 1 1 1 1 1 1 1 1 1 1 1 2 2 2 2 1 1 1 1 1 1 1
0 0 0 0 0 0 0 0 0 0 0 0 0 0 0 1 1 1 1 1 1 1 1 1 1 2 2 2 2 2 1 1 2 2 2 2 2 2 1 1 1 1 1 1
0 0 0 0 0 0 0 0 0 0 0 0 0 0 1 1 1 1 1 1 1 1 1 2 2 2 2 2 2 2 2 2 2 2 2 2 2 2 2 1 1 1 1 1
0 0 0 0 0 0 0 0 0 0 0 0 0 1 1 1 1 1 1 1 1 1 2 2 2 3 3 3 2 2 2 2 2 2 2 2 2 2 2 2 2 2 2 1
0 0 0 0 0 0 0 0 0 0 0 0 0 1 1 1 1 1 1 1 2 2 2 2 2 3 3 3 2 2 2 2 2 2 2 2 3 2 2 2 2 2 2 2
0 0 0 0 0 0 0 0 0 0 0 0 0 1 1 1 1 1 1 2 2 2 2 2 2 2 2 2 2 2 2 2 2 2 2 2 3 3 3 2 2 2 2 2
0 0 0 0 0 0 0 0 0 0 0 0 0 1 1 1 1 1 1 2 2 2 2 2 2 2 2 2 2 2 2 2 2 2 2 2 3 3 3 3 3 3 2 2
0 0 0 0 0 0 0 0 0 0 0 0 0 1 1 1 1 1 1 2 2 2 2 2 2 2 2 2 2 2 2 2 2 2 2 3 3 3 3 3 3 3 3 2
0 0 0 0 0 0 0 0 0 0 0 0 1 1 2 2 2 2 2 2 2 2 2 2 2 2 2 2 2 2 2 2 2 2 2 3 3 3 3 3 3 3 3 2
0 0 0 0 0 0 0 0 0 1 1 1 1 1 2 2 2 2 2 2 2 2 2 2 2 2 2 2 2 2 2 2 2 2 2 2 2 2 2 3 3 3 2 2
0 0 0 0 0 0 0 0 1 1 1 1 1 2 2 2 2 2 2 2 2 2 2 2 2 2 2 2 2 2 2 2 2 2 2 2 2 2 2 2 2 2 2 2
0 0 0 0 0 0 0 0 0 1 1 1 1 2 2 2 2 2 2 2 2 2 2 2 2 2 2 2 2 2 2 2 2 2 2 2 2 2 2 2 1 1 1 1
0 0 0 1 1 0 0 0 0 1 1 1 1 1 2 2 2 2 2 2 2 2 2 2 2 2 2 1 1 1 2 2 2 2 2 1 1 1 1 1 1 1 1 1
0 0 1 1 1 1 0 0 0 1 1 1 1 1 1 1 1 1 1 1 1 1 1 1 1 1 1 1 1 1 1 2 2 2 1 1 1 1 1 1 1 1 0 0
Wind_Speed
14 11 11 12 12 9 8 10 6 4 5 4 4 7 9 12 11 12 12 12 11 11 11 11 10 10 10 9 7 6 5 5 3 3 3 2 2 2 2 3 4 4 3 3
13 15 15 14 12 12 12 10 6 3 4 3 2 4 7 10 10 10 12 12 12 12 12 11 11 10 11 10 8 7 6 6 4 3 2 2 3 2 3 2 4 4 3 3
18 13 12 13 13 12 11 9 7 4 2 3 4 4 5 7 9 10 11 12 13 13 13 12 11 10 11 11 10 8 7 6 5 4 3 3 2 1 2 3 3 3 3 3
15 13 13 14 14 12 10 9 8 6 6 5 6 4 6 8 9 10 10 10 11 13 14 13 12 10 11 11 11 9 8 6 5 5 4 4 4 3 3 3 3 3 3 3
14 14 14 15 12 10 9 9 9 9 8 7 6 4 5 8 9 9 10 9 10 12 14 14 13 12 11 12 11 9 8 7 6 5 4 3 3 3 3 3 3 3 3 3
15 14 13 13 11 10 9 11 10 10 8 7 8 6 4 7 9 9 11 10 10 11 12 13 13 12 11 11 11 11 9 7 6 5 4 4 4 3 3 3 4 3 3 3
17 17 14 12 13 12 11 10 7 8 7 8 7 5 3 5 7 8 10 11 11 11 12 12 12 13 11 12 11 11 10 8 7 6 5 5 4 3 3 3 4 4 3 3
15 14 14 13 13 12 12 12 9 8 9 7 5 4 2 4 6 7 9 10 11 10 11 11 12 12 11 12 11 11 10 9 8 7 5 5 4 3 3 3 3 3 2 2
11 11 12 13 11 13 12 12 12 9 10 8 5 3 5 5 7 8 8 9 10 10 10 11 12 12 11 10 10 11 11 9 8 8 6 5 5 4 3 3 3 2 2 2
11 11 10 10 9 13 15 11 8 7 6 8 7 6 5 7 6 6 7 7 8 8 8 8 10 11 11 10 9 10 10 9 8 8 7 6 5 4 3 3 4 2 1 1
12 11 10 11 12 13 13 13 10 7 8 8 7 4 2 6 5 5 7 8 6 7 7 7 7 9 11 10 10 9 10 9 8 8 6 5 6 5 4 3 3 3 2 2
9 10 10 12 11 11 13 13 12 9 7 7 7 4 3 4 7 6 5 7 7 6 7 8 9 8 8 10 10 9 9 9 9 8 7 5 5 5 5 4 3 3 2 2
6 7 9 11 11 11 10 12 14 13 9 8 7 5 5 2 5 6 6 6 7 6 6 7 8 8 7 6 6 8 8 8 9 8 8 6 6 5 5 4 4 3 3 3
6 9 11 11 9 9 11 13 12 12 9 9 7 5 3 0 2 4 5 6 6 5 4 6 7 6 6 6 5 5 6 7 7 7 8 7 6 5 5 4 3 3 3 3
7 10 11 12 13 13 12 12 12 12 12 11 6 4 3 2 1 3 4 6 6 5 5 5 5 5 5 6 5 5 4 4 5 6 6 7 6 5 5 5 4 4 4 4
6 8 10 12 13 13 13 12 11 11 11 10 6 2 2 3 3 3 5 5 5 4 4 4 4 5 4 5 5 5 4 4 4 4 4 5 6 5 5 4 4 4 4 3
7 7 10 10 11 12 12 11 10 8 8 6 3 1 3 2 1 3 4 5 4 3 5 4 3 3 3 4 4 4 5 4 4 4 3 3 4 5 4 4 4 4 4 4
8 7 7 9 10 13 7 6 8 6 5 2 1 1 2 2 1 3 5 4 4 3 4 4 3 2 2 3 3 3 4 4 5 4 3 3 3 4 4 4 4 4 4 4
7 6 8 8 11 10 7 5 7 5 3 3 1 2 1 1 1 3 5 4 4 3 3 3 3 2 2 2 2 3 3 4 4 4 4 4 4 4 4 4 4 4 3 3
9 7 8 9 11 10 5 5 5 5 4 4 2 2 2 2 1 1 4 4 4 4 3 3 2 2 2 2 2 2 2 3 3 3 3 4 3 3 4 4 3 3 3 3
9 9 11 12 11 5 5 5 4 5 2 4 3 3 1 2 2 3 4 4 4 4 3 3 3 3 3 3 3 2 1 1 1 2 2 3 3 3 3 3 2 2 2 3
6 7 8 8 10 4 6 4 2 3 4 4 5 4 4 5 6 5 4 4 4 4 3 3 4 4 3 3 3 2 2 1 2 2 2 1 1 1 2 2 2 2 3 3
5 3 2 2 2 3 6 5 4 4 5 4 5 4 5 5 5 4 4 3 3 3 3 4 4 3 3 3 3 2 2 2 2 2 2 2 1 1 0 1 2 2 2 2
3 1 3 2 1 3 3 3 4 5 4 4 4 3 4 4 4 3 3 4 4 5 4 4 3 4 4 3 3 2 2 1 1 1 1 1 1 1 1 1 1 0 0 1
3 2 2 1 1 2 3 5 5 4 3 4 3 3 3 4 3 4 4 4 4 4 4 4 4 4 4 4 3 2 2 1 1 0 1 1 1 1 1 1 0 0 1 1
4 3 2 0 1 1 0 2 2 2 2 2 3 3 3 3 3 4 4 4 4 4 3 4 4 3 3 3 4 3 3 2 1 0 1 1 1 1 1 1 2 3 2 3
Wind_Direction
231 235 241 244 244 250 253 264 260 206 192 205 171 161 175 170 169 159 159 162 162 160 156 150 151 146 144 146 147 147 146 137 147 145 150 143 144 154 139 139 133 136 148 137
232 232 241 247 250 255 254 264 266 234 178 186 176 188 183 171 172 167 165 166 165 160 155 153 156 154 152 151 152 153 149 152 164 154 157 161 156 165 150 131 133 148 150 149
231 232 237 249 254 259 263 271 277 289 244 203 209 209 186 171 177 170 169 167 167 164 160 159 162 161 158 155 158 165 161 161 170 153 158 156 138 165 136 138 144 157 154 155
236 236 240 246 253 256 262 269 277 275 266 247 231 226 180 181 187 172 167 166 168 166 162 162 165 166 164 160 161 161 157 161 165 162 173 169 158 163 167 159 151 160 162 162
242 235 239 245 247 251 263 280 283 280 269 264 249 235 189 182 187 177 164 165 174 166 162 165 169 168 168 165 163 161 157 163 165 173 173 172 167 167 169 158 148 158 171 179
246 244 239 248 253 250 258 267 270 273 269 256 258 251 212 180 181 172 163 165 170 166 161 163 165 165 169 167 164 162 160 165 168 177 178 177 179 175 163 158 157 173 174 178
239 237 232 236 248 244 242 252 256 257 251 243 230 244 227 156 167 162 158 161 168 166 161 162 164 164 167 167 167 164 160 167 171 178 183 179 184 178 168 171 177 186 183 178
237 231 225 225 233 245 242 245 247 256 263 261 234 213 211 135 139 142 151 160 163 162 162 163 163 163 165 167 166 160 160 168 174 179 185 174 179 187 186 193 196 181 195 181
254 242 219 220 225 240 245 245 258 259 265 276 278 217 185 173 151 151 150 158 154 160 164 166 164 163 164 166 163 161 159 166 174 177 179 174 181 190 195 181 194 191 188 185
259 268 244 218 215 237 246 255 263 263 271 274 267 255 221 172 163 156 150 141 143 154 158 157 159 161 164 164 159 160 160 166 172 175 179 178 183 189 198 189 179 188 200 203
256 265 257 233 221 235 234 236 246 258 261 263 267 257 164 145 153 165 157 142 149 149 144 143 154 159 159 161 163 162 160 164 171 177 177 177 175 185 191 197 189 183 194 208
262 260 261 255 241 239 245 244 246 249 255 262 266 271 251 169 162 158 144 132 138 137 142 152 157 150 156 161 167 164 166 171 174 176 171 179 171 176 184 190 189 184 183 192
275 266 259 249 240 232 243 252 256 257 251 247 252 236 232 167 143 131 138 131 131 132 139 144 141 146 149 152 156 162 168 173 175 175 173 177 176 175 182 186 180 180 178 185
256 254 263 260 262 257 246 252 259 261 261 260 247 209 219 106 103 112 122 122 114 117 127 132 131 136 140 144 143 149 167 169 171 172 172 170 173 176 178 179 176 183 183 186
248 249 260 269 272 269 264 254 253 259 266 268 259 209 188 134 100 114 116 118 117 119 120 116 127 129 137 144 146 150 154 153 160 161 165 167 168 170 176 178 178 186 191 198
248 261 261 261 265 267 267 268 262 261 263 263 261 241 127 100 95 107 120 123 125 125 114 104 105 127 139 145 150 149 146 144 145 153 162 160 166 173 182 182 180 184 192 200
254 267 266 259 261 266 260 261 257 256 269 271 262 158 120 76 112 128 118 123 128 135 125 119 119 116 137 149 145 145 147 147 151 158 163 161 163 170 178 189 184 193 196 199
254 262 265 264 261 256 265 284 282 278 285 300 293 66 88 115 178 112 103 105 107 109 120 124 126 132 150 148 148 147 159 157 160 163 168 166 170 173 175 186 192 199 199 202
240 245 256 259 254 249 250 259 264 265 283 328 16 77 63 60 72 84 76 85 93 95 92 103 125 141 133 148 149 151 166 162 164 168 172 175 177 178 181 191 199 197 197 203
223 224 245 254 261 260 255 258 275 274 246 349 21 93 118 136 196 102 74 77 89 81 90 89 92 94 105 109 121 149 165 166 172 176 176 169 177 186 192 194 197 202 202 213
221 221 236 251 258 258 297 299 275 249 274 334 8 45 63 73 76 91 85 73 79 80 70 88 94 81 65 71 87 97 124 144 148 150 160 160 179 200 190 187 187 206 212 216
237 235 236 251 254 259 350 342 8 32 22 19 36 52 55 72 87 98 92 81 81 86 83 84 84 84 77 75 83 85 70 62 84 102 116 128 155 227 184 177 198 208 221 219
235 254 257 276 284 19 26 44 51 40 27 27 52 58 70 82 89 92 89 88 95 92 84 83 85 83 77 83 85 81 61 56 87 102 98 92 78 81 77 190 204 210 216 223
195 288 230 224 143 46 31 44 48 44 35 31 55 68 84 91 85 80 89 86 88 90 89 83 76 78 74 71 74 79 76 70 93 114 121 119 119 175 165 147 221 230 304 272
336 294 272 170 90 51 23 37 38 27 28 51 75 96 98 103 97 88 92 82 86 90 89 85 77 75 73 67 62 67 73 80 89 142 171 182 215 222 171 135 51 65 27 36
347 348 311 327 16 340 53 46 43 13 24 72 88 93 96 103 110 104 100 95 95 92 87 88 82 75 66 59 46 42 45 45 40 246 259 265 243 207 190 141 116 64 83 71